Wind_Speed
19 19 18 18 17 16 16 16 15 15 15 15 15 15 15 16 16 17 18 19 19 19 20 20 20 21 22 22 22 23 23 24 24 24 24 24 24 25 25 26 26 26 27
20 20 20 19 18 17 17 17 17 17 17 17 17 18 18 18 18 18 18 19 20 20 21 21 22 22 22 23 24 25 25 26 26 27 27 28 28 28 29 29 29 29 30
22 21 20 21 20 19 19 19 19 19 19 20 20 20 20 20 20 20 20 20 21 21 22 23 24 24 25 25 26 26 26 27 28 29 30 31 31 32 32 33 33 34 34
23 22 22 22 22 21 21 21 20 21 21 21 22 22 22 22 23 22 22 23 24 24 24 25 26 26 27 27 27 27 27 28 30 31 32 34 35 35 36 37 37 38 39
24 24 24 24 23 23 23 23 22 23 23 24 24 24 25 25 25 25 25 26 26 27 27 27 28 28 28 28 29 30 31 31 32 34 35 36 37 38 39 40 41 42 43
24 24 25 24 25 25 24 25 25 26 25 25 26 27 27 28 27 28 28 29 29 29 30 30 31 30 30 31 32 33 34 34 35 36 37 39 40 41 42 43 45 46 47
25 24 24 24 24 24 24 25 26 27 27 27 27 27 28 29 29 29 29 30 31 31 32 33 33 33 34 34 36 37 38 38 39 40 41 42 44 45 47 49 49 50 51
24 24 24 24 24 24 25 25 26 27 28 27 28 29 29 29 30 31 31 32 32 33 34 34 35 36 37 38 39 40 41 42 43 44 45 46 47 48 50 52 52 53 53
24 24 23 23 24 24 25 25 26 27 27 28 29 31 31 30 31 32 33 34 35 35 36 36 38 39 40 41 42 43 44 45 47 48 49 50 51 51 52 53 54 56 57
24 24 24 24 24 25 25 25 26 26 27 28 30 31 31 32 33 34 35 36 37 37 38 39 40 41 42 44 45 46 47 48 49 51 52 53 53 54 55 55 56 58 59
22 22 22 23 24 25 25 26 27 26 27 28 29 30 31 33 34 36 37 37 38 39 40 41 42 43 44 45 47 48 50 50 51 53 54 55 56 56 56 56 57 58 59
20 21 22 23 24 25 25 25 27 27 28 29 30 31 33 34 36 37 38 39 40 41 43 43 44 46 47 48 49 51 52 52 53 54 55 56 57 57 57 57 58 58 59
20 21 21 23 24 26 27 28 29 30 31 32 33 34 35 37 38 39 40 42 43 44 45 45 46 48 49 50 51 52 53 54 54 55 56 57 57 58 58 58 58 58 58
24 24 24 25 27 29 30 30 31 33 34 35 36 37 38 39 40 41 42 44 45 46 46 47 48 49 50 51 52 53 53 54 54 54 55 55 55 56 56 57 57 58 58
26 27 27 29 30 31 32 33 34 35 36 37 38 39 40 41 42 43 43 44 45 46 47 48 49 51 52 52 52 52 52 52 52 52 51 52 53 54 55 55 55 56 56
27 27 29 30 32 33 34 35 36 37 38 39 40 41 41 41 42 43 43 44 45 46 47 48 49 50 50 50 49 49 49 49 49 49 50 50 50 50 50 51 51 51 51
28 29 30 31 32 34 35 36 37 38 39 40 41 41 41 41 42 43 43 44 45 46 46 47 47 47 47 46 46 45 45 46 46 47 47 47 47 48 48 47 48 48 48
30 31 32 33 34 35 36 37 38 39 40 40 40 40 40 41 42 43 43 43 43 44 44 43 42 41 41 41 41 42 42 43 43 44 44 44 44 44 44 44 45 45 44
32 33 33 34 35 35 37 38 39 40 40 39 40 40 40 40 41 41 41 40 40 39 39 38 38 38 38 38 39 39 39 39 39 39 39 40 40 40 40 40 40 40 39
32 33 33 34 35 36 37 38 38 38 38 38 38 38 38 38 38 37 37 36 36 35 35 34 34 34 34 35 35 35 35 35 35 34 35 35 35 35 35 35 35 35 34
32 32 32 33 34 35 35 35 35 35 35 35 35 35 35 35 34 34 33 32 32 32 31 31 31 30 31 31 31 31 31 31 31 31 31 31 31 31 30 30 30 30 30
31 31 31 31 31 31 31 32 32 31 31 32 31 31 31 31 31 30 29 29 28 28 28 27 27 27 28 28 28 28 27 28 28 28 28 28 28 28 27 27 27 27 28
29 29 29 29 29 29 28 28 28 28 28 28 28 29 29 28 27 26 26 26 25 25 25 25 25 26 26 26 26 26 25 25 25 25 25 26 26 25 25 25 25 25 26
26 26 26 27 27 27 26 26 27 26 26 26 26 26 26 25 24 23 23 23 22 22 23 23 23 24 24 24 24 24 24 24 23 23 23 23 23 24 24 24 25 25 25
24 25 25 25 25 25 25 25 25 24 24 23 23 23 22 22 21 20 20 20 20 21 21 21 22 22 22 22 22 22 22 21 21 21 21 21 21 22 23 24 24 25 25
23 23 23 23 23 23 23 22 22 21 21 21 21 20 19 19 18 18 18 18 19 20 20 20 21 21 21 21 20 20 20 19 19 19 19 19 20 21 22 23 24 24 24
Wind_Direction
237 237 237 238 238 241 246 249 252 256 260 265 268 269 274 279 283 285 286 286 285 287 287 284 283 283 282 283 284 283 281 278 276 276 275 275 274 273 271 270 269 268 268
237 237 238 239 239 242 247 251 255 260 262 265 269 271 275 280 284 285 285 285 284 285 286 283 285 284 284 283 283 282 280 278 276 276 274 274 274 273 271 270 270 269 269
238 238 238 240 241 244 248 251 256 261 263 266 270 273 275 278 282 283 284 284 283 283 284 284 283 284 283 283 282 281 280 278 278 277 275 274 274 274 272 271 270 270 270
238 239 238 240 243 246 250 252 258 262 263 265 268 270 272 275 278 280 281 282 282 283 284 284 285 284 283 282 280 280 280 279 278 277 275 274 274 274 273 272 272 271 271
239 241 242 242 245 247 250 254 258 260 263 266 268 270 271 274 276 277 279 280 281 282 282 282 283 283 282 280 278 278 279 278 278 277 277 276 277 275 275 275 274 273 272
239 241 243 245 248 250 253 256 257 260 262 265 268 269 270 272 275 277 278 279 281 280 280 279 281 282 282 281 279 280 280 279 278 277 277 278 277 275 275 275 275 274 273
239 241 243 246 248 250 255 258 260 260 261 265 269 272 273 274 275 275 276 279 280 280 279 279 280 281 281 281 281 282 280 278 277 277 277 278 277 276 276 276 275 274 274
239 240 244 248 251 253 257 260 261 261 262 264 268 271 273 274 275 275 277 278 279 280 280 280 280 281 281 281 281 281 281 280 279 278 278 279 280 279 278 278 276 275 274
244 246 250 253 255 256 259 262 264 264 266 267 269 272 272 273 274 276 278 279 280 281 281 282 281 282 282 282 282 282 281 281 280 278 279 280 281 280 280 278 277 276 276
248 248 252 256 258 260 262 265 265 267 269 270 271 272 273 275 276 278 279 281 281 281 281 282 283 283 283 283 282 282 282 281 281 281 281 282 282 281 280 280 279 278 277
253 255 257 257 260 263 265 265 266 269 270 274 276 278 279 279 278 279 280 281 282 282 282 283 283 284 284 283 283 283 283 283 282 282 282 282 281 281 281 280 279 278 277
257 260 263 262 262 264 266 268 269 269 274 278 278 279 280 280 281 281 282 282 283 284 284 284 284 285 285 285 284 285 285 285 284 284 284 284 283 282 281 280 279 279 278
261 264 264 264 263 265 268 271 272 273 276 278 280 281 281 282 281 281 282 283 284 285 285 285 286 286 287 287 287 287 287 286 286 286 285 285 284 284 283 282 281 281 280
261 262 264 266 267 270 271 272 273 276 277 279 280 282 282 283 283 282 282 283 284 285 286 286 286 287 287 288 288 288 288 288 287 287 286 286 286 286 285 284 283 283 283
263 266 267 269 270 272 274 276 277 279 279 280 282 283 283 282 283 283 283 284 285 286 286 287 287 287 288 288 289 289 289 289 289 289 288 288 289 289 288 287 287 286 285
266 269 270 272 273 273 275 277 279 280 281 281 283 283 283 283 283 283 284 285 286 287 288 288 288 289 289 289 289 290 289 289 290 290 291 291 291 291 290 290 290 290 289
270 271 273 276 276 276 277 278 280 281 281 282 284 284 283 283 284 285 285 286 287 288 289 289 290 290 290 291 291 291 291 291 291 292 293 293 293 293 293 293 292 292 291
274 274 276 276 277 277 279 280 281 282 283 284 284 283 284 284 285 286 287 288 289 289 290 290 291 291 292 293 293 294 294 294 295 296 296 296 296 296 296 295 295 295 294
276 276 276 277 278 280 281 282 283 283 284 284 284 284 285 285 286 287 288 289 290 290 291 292 293 294 295 296 297 298 299 299 299 299 299 299 299 299 299 299 299 298 298
276 277 278 279 280 282 283 284 284 284 284 285 284 285 286 286 287 289 290 290 291 291 293 294 295 296 298 300 301 302 303 304 305 305 306 305 305 305 305 305 304 304 303
277 279 280 281 283 284 285 284 285 285 285 286 286 287 287 289 289 290 291 291 292 292 293 294 296 298 301 303 304 306 307 309 310 311 312 312 313 313 311 311 311 310 309
279 281 282 283 284 285 286 287 287 288 288 288 289 290 291 291 291 291 291 292 292 293 295 297 300 303 305 306 307 308 310 311 313 314 314 315 317 318 317 316 315 315 315
281 282 282 283 285 286 288 289 291 291 291 291 293 293 293 292 292 292 292 292 293 295 298 300 303 306 307 308 309 311 312 313 315 316 317 319 320 322 323 323 323 322 321
283 284 284 285 287 288 288 290 292 293 293 293 294 293 293 292 293 292 292 293 296 298 301 303 305 307 308 309 311 312 313 315 318 320 322 324 325 327 328 329 328 327 326
285 287 288 288 287 289 291 292 292 294 295 296 296 295 295 295 294 294 295 297 300 302 303 305 307 308 309 310 312 313 315 317 320 323 326 329 330 332 332 332 333 332 332
290 291 292 292 292 293 294 294 294 294 295 296 295 294 294 295 295 296 299 302 304 306 307 308 309 310 311 313 314 316 318 319 322 325 328 331 333 334 334 334 336 337 338
Height
5863 5864 5865 5866 5867 5868 5869 5870 5870 5871 5871 5871 5871 5871 5871 5871 5870 5869 5869 5868 5867 5867 5866 5865 5865 5864 5863 5862 5862 5861 5861 5860 5860 5859 5859 5858 5858 5858 5857 5857 5857 5856 5856
5859 5860 5862 5863 5864 5864 5865 5866 5866 5867 5867 5867 5867 5867 5867 5866 5866 5865 5864 5863 5863 5862 5861 5861 5860 5859 5858 5858 5857 5856 5855 5854 5854 5853 5853 5853 5852 5852 5851 5851 5850 5850 5850
5854 5856 5857 5858 5859 5860 5861 5862 5862 5863 5863 5863 5863 5862 5862 5862 5861 5860 5859 5859 5858 5857 5856 5856 5855 5854 5853 5852 5851 5850 5849 5848 5848 5847 5847 5846 5845 5845 5844 5844 5843 5843 5843
5850 5851 5852 5854 5854 5855 5856 5857 5858 5858 5858 5858 5858 5858 5857 5857 5856 5855 5855 5854 5853 5852 5851 5850 5849 5848 5847 5846 5845 5844 5843 5842 5841 5840 5839 5838 5837 5837 5836 5836 5835 5834 5834
5845 5846 5847 5848 5849 5850 5851 5852 5853 5853 5853 5853 5853 5852 5852 5852 5851 5850 5849 5848 5847 5846 5845 5844 5843 5842 5841 5839 5838 5837 5836 5835 5833 5832 5831 5830 5829 5828 5827 5826 5825 5825 5824
5840 5841 5842 5844 5844 5845 5846 5847 5847 5847 5847 5847 5847 5846 5846 5846 5845 5844 5843 5842 5841 5840 5838 5837 5836 5835 5834 5833 5831 5830 5829 5827 5825 5824 5822 5821 5820 5818 5817 5816 5815 5813 5812
5834 5836 5837 5838 5839 5840 5840 5841 5841 5841 5841 5841 5841 5840 5839 5839 5838 5837 5836 5835 5834 5832 5831 5830 5829 5828 5826 5825 5823 5822 5820 5818 5816 5814 5813 5811 5809 5808 5806 5804 5803 5801 5800
5829 5830 5832 5833 5833 5834 5834 5834 5835 5835 5834 5834 5834 5834 5833 5833 5831 5831 5830 5828 5827 5825 5824 5822 5821 5819 5818 5816 5814 5812 5810 5808 5806 5804 5802 5800 5798 5796 5794 5792 5790 5788 5787
5823 5824 5826 5827 5828 5829 5829 5829 5829 5829 5828 5828 5828 5827 5826 5826 5825 5824 5822 5821 5819 5818 5816 5814 5812 5811 5809 5807 5804 5802 5800 5797 5795 5792 5790 5788 5785 5783 5781 5778 5776 5774 5772
5817 5818 5820 5821 5822 5822 5823 5823 5823 5822 5822 5821 5821 5820 5819 5818 5817 5816 5815 5813 5811 5810 5807 5805 5803 5801 5799 5796 5794 5791 5789 5786 5783 5780 5778 5775 5772 5769 5767 5764 5762 5759 5757
5811 5812 5813 5814 5815 5816 5816 5816 5816 5816 5815 5815 5814 5813 5812 5810 5809 5808 5806 5805 5803 5801 5798 5796 5793 5790 5788 5785 5782 5779 5777 5774 5770 5767 5764 5761 5758 5755 5752 5749 5746 5743 5740
5806 5807 5807 5808 5809 5809 5809 5809 5809 5809 5808 5807 5806 5805 5804 5802 5801 5799 5797 5795 5793 5791 5788 5786 5783 5780 5777 5774 5770 5767 5764 5760 5757 5754 5750 5747 5743 5739 5736 5733 5730 5727 5724
5800 5801 5802 5802 5802 5802 5802 5802 5802 5802 5801 5800 5798 5797 5795 5794 5792 5790 5788 5785 5783 5780 5778 5775 5772 5768 5765 5761 5758 5754 5750 5747 5743 5739 5735 5731 5728 5724 5720 5716 5713 5710 5707
5794 5795 5795 5795 5795 5795 5795 5794 5794 5793 5792 5791 5790 5788 5786 5784 5782 5780 5777 5775 5772 5769 5766 5763 5760 5756 5752 5749 5745 5741 5737 5733 5729 5725 5721 5717 5712 5708 5704 5700 5697 5693 5689
5787 5788 5788 5788 5788 5788 5787 5786 5785 5784 5783 5782 5780 5778 5776 5774 5771 5769 5766 5763 5761 5758 5755 5751 5747 5744 5740 5736 5732 5728 5724 5720 5715 5711 5707 5703 5698 5694 5689 5685 5681 5677 5672
5779 5780 5780 5780 5779 5779 5778 5777 5776 5775 5773 5772 5770 5768 5765 5763 5760 5758 5755 5752 5749 5746 5742 5739 5735 5731 5727 5723 5719 5715 5711 5707 5703 5698 5694 5689 5684 5680 5676 5671 5666 5661 5657
5771 5771 5771 5771 5770 5770 5769 5768 5766 5764 5763 5761 5759 5757 5754 5752 5749 5746 5743 5740 5737 5734 5730 5727 5723 5719 5715 5711 5707 5703 5699 5695 5690 5686 5681 5676 5672 5667 5662 5657 5653 5648 5643
5763 5763 5762 5762 5761 5760 5759 5758 5756 5754 5752 5750 5748 5746 5743 5741 5738 5735 5732 5729 5725 5722 5719 5715 5711 5708 5704 5700 5696 5692 5688 5683 5678 5674 5669 5664 5659 5654 5650 5645 5640 5635 5630
5755 5754 5753 5753 5752 5750 5749 5747 5746 5743 5741 5739 5737 5735 5732 5730 5727 5724 5721 5718 5714 5711 5708 5705 5701 5698 5694 5690 5686 5682 5677 5672 5668 5663 5658 5653 5648 5643 5638 5633 5628 5623 5619
5746 5745 5744 5743 5742 5740 5739 5737 5735 5732 5730 5728 5726 5724 5721 5719 5716 5713 5710 5707 5705 5702 5699 5696 5692 5689 5686 5682 5677 5673 5668 5663 5659 5654 5649 5644 5639 5634 5629 5624 5619 5614 5609
5737 5736 5735 5734 5732 5731 5729 5727 5725 5722 5720 5718 5716 5713 5711 5709 5706 5703 5701 5698 5696 5693 5690 5687 5684 5681 5677 5673 5669 5665 5660 5655 5651 5646 5641 5636 5631 5626 5621 5616 5611 5606 5601
5728 5727 5725 5724 5723 5721 5719 5717 5715 5713 5711 5709 5707 5704 5702 5700 5697 5695 5692 5690 5688 5685 5683 5680 5677 5674 5670 5666 5662 5658 5653 5649 5645 5640 5635 5630 5625 5620 5615 5610 5605 5600 5595
5719 5718 5717 5716 5715 5713 5711 5709 5707 5705 5703 5700 5698 5696 5694 5692 5690 5687 5685 5683 5681 5678 5676 5673 5670 5666 5663 5660 5656 5652 5647 5643 5639 5635 5630 5625 5620 5615 5609 5604 5599 5594 5589
5711 5710 5709 5708 5706 5705 5703 5701 5699 5697 5695 5693 5691 5689 5687 5685 5683 5680 5679 5677 5674 5672 5669 5667 5664 5660 5657 5654 5650 5646 5642 5638 5634 5630 5625 5620 5615 5610 5605 5600 5595 5590 5585
5704 5703 5701 5700 5699 5697 5696 5694 5692 5690 5689 5687 5684 5682 5681 5679 5677 5675 5673 5671 5669 5666 5663 5661 5658 5655 5651 5648 5644 5641 5637 5633 5629 5625 5621 5616 5612 5607 5602 5597 5592 5586 5581
5696 5696 5694 5693 5692 5691 5689 5687 5686 5684 5682 5680 5679 5676 5675 5673 5671 5669 5668 5665 5663 5661 5658 5655 5652 5649 5646 5643 5640 5636 5633 5629 5625 5621 5617 5613 5609 5604 5600 5594 5589 5583 5577